Time,TemperatureF,DewpointF,PressureIn,WindDirection,WindDirectionDegrees,WindSpeedMPH,WindSpeedGustMPH,Humidity,HourlyPrecipIn,Conditions,Clouds,dailyrainin,SoftwareType,DateUTC
2013-05-14 00:03:00,38.4,34.0,30.05,SW,232,0.0,-999.0,83,-99.99,,,0.01,weatherlink.com 1.10,2013-05-14 04:03:00,
2013-05-14 00:19:00,38.5,33.0,30.05,West,275,0.0,-999.0,82,-99.99,,,0.01,weatherlink.com 1.10,2013-05-14 04:19:00,
2013-05-14 00:33:00,38.8,33.0,30.05,West,275,0.0,-999.0,81,-99.99,,,0.01,weatherlink.com 1.10,2013-05-14 04:33:00,
2013-05-14 00:48:00,38.3,34.0,30.05,West,275,0.0,-999.0,84,-99.99,,,0.01,weatherlink.com 1.10,2013-05-14 04:48:00,
2013-05-14 01:03:00,37.8,34.0,30.05,West,275,0.0,-999.0,85,-99.99,,,0.01,weatherlink.com 1.10,2013-05-14 05:03:00,
2013-05-14 01:18:00,37.7,34.0,30.04,West,275,0.0,-999.0,86,-99.99,,,0.01,weatherlink.com 1.10,2013-05-14 05:18:00,
2013-05-14 01:33:00,37.5,34.0,30.04,West,275,0.0,-999.0,86,-99.99,,,0.01,weatherlink.com 1.10,2013-05-14 05:33:00,
2013-05-14 01:48:00,38.1,34.0,30.04,North,359,0.0,-999.0,84,-99.99,,,0.01,weatherlink.com 1.10,2013-05-14 05:48:00,
2013-05-14 02:03:00,38.4,33.0,30.04,North,359,0.0,-999.0,80,-99.99,,,0.01,weatherlink.com 1.10,2013-05-14 06:03:00,
2013-05-14 02:18:00,38.7,32.0,30.04,North,360,0.0,-999.0,77,-99.99,,,0.01,weatherlink.com 1.10,2013-05-14 06:18:00,
2013-05-14 02:33:00,38.0,32.0,30.05,North,360,0.0,-999.0,79,-99.99,,,0.01,weatherlink.com 1.10,2013-05-14 06:33:00,
2013-05-14 02:48:00,38.8,32.0,30.05,NW,307,0.0,-999.0,76,-99.99,,,0.01,weatherlink.com 1.10,2013-05-14 06:48:00,
2013-05-14 03:03:00,39.0,32.0,30.04,NW,307,0.0,-999.0,75,-99.99,,,0.01,weatherlink.com 1.10,2013-05-14 07:03:00,
2013-05-14 03:18:00,38.9,32.0,30.04,NW,307,0.0,-999.0,75,-99.99,,,0.01,weatherlink.com 1.10,2013-05-14 07:18:00,
2013-05-14 03:33:00,37.5,31.0,30.05,NW,307,0.0,-999.0,78,-99.99,,,0.01,weatherlink.com 1.10,2013-05-14 07:33:00,
2013-05-14 03:48:00,35.9,31.0,30.05,NW,307,0.0,-999.0,82,-99.99,,,0.01,weatherlink.com 1.10,2013-05-14 07:48:00,
2013-05-14 04:03:00,35.2,31.0,30.05,NW,307,0.0,-999.0,83,-99.99,,,0.01,weatherlink.com 1.10,2013-05-14 08:03:00,
2013-05-14 04:18:00,34.4,30.0,30.06,NW,307,0.0,-999.0,85,-99.99,,,0.01,weatherlink.com 1.10,2013-05-14 08:18:00,
2013-05-14 04:33:00,34.2,31.0,30.07,NW,307,0.0,-999.0,87,-99.99,,,0.01,weatherlink.com 1.10,2013-05-14 08:33:00,
2013-05-14 04:48:00,33.5,30.0,30.07,NW,308,0.0,-999.0,87,-99.99,,,0.01,weatherlink.com 1.10,2013-05-14 08:48:00,
2013-05-14 05:03:00,33.1,30.0,30.07,NW,307,0.0,-999.0,88,-99.99,,,0.01,weatherlink.com 1.10,2013-05-14 09:03:00,
2013-05-14 05:18:00,32.5,30.0,30.08,NW,307,0.0,-999.0,89,-99.99,,,0.01,weatherlink.com 1.10,2013-05-14 09:18:00,
2013-05-14 05:33:00,32.1,29.0,30.08,NW,307,0.0,-999.0,89,-99.99,,,0.01,weatherlink.com 1.10,2013-05-14 09:33:00,
2013-05-14 05:48:00,31.8,29.0,30.08,NW,307,0.0,-999.0,90,-99.99,,,0.01,weatherlink.com 1.10,2013-05-14 09:48:00,
2013-05-14 06:03:00,32.5,30.0,30.08,NW,307,0.0,-999.0,91,-99.99,,,0.01,weatherlink.com 1.10,2013-05-14 10:03:00,
2013-05-14 06:18:00,33.7,31.0,30.08,NW,310,0.0,-999.0,91,-99.99,,,0.01,weatherlink.com 1.10,2013-05-14 10:18:00,
2013-05-14 06:33:00,34.4,32.0,30.09,NNW,332,0.0,-999.0,90,-99.99,,,0.01,weatherlink.com 1.10,2013-05-14 10:33:00,
2013-05-14 06:48:00,35.4,33.0,30.09,NNW,346,2.0,-999.0,90,-99.99,,,0.01,weatherlink.com 1.10,2013-05-14 10:48:00,
2013-05-14 07:03:00,35.7,33.0,30.09,North,10,3.0,-999.0,89,-99.99,,,0.01,weatherlink.com 1.10,2013-05-14 11:03:00,
2013-05-14 07:19:00,35.3,32.0,30.10,North,3,4.0,-999.0,89,-99.99,,,0.01,weatherlink.com 1.10,2013-05-14 11:19:00,
2013-05-14 07:34:00,35.7,33.0,30.10,North,351,2.0,-999.0,90,-99.99,,,0.01,weatherlink.com 1.10,2013-05-14 11:34:00,
2013-05-14 07:49:00,36.7,34.0,30.11,NE,37,0.0,-999.0,90,-99.99,,,0.01,weatherlink.com 1.10,2013-05-14 11:49:00,
2013-05-14 08:04:00,40.4,37.0,30.10,North,355,3.0,-999.0,87,-99.99,,,0.01,weatherlink.com 1.10,2013-05-14 12:04:00,
2013-05-14 08:19:00,42.2,36.0,30.11,North,355,0.0,-999.0,79,-99.99,,,0.01,weatherlink.com 1.10,2013-05-14 12:19:00,
2013-05-14 08:34:00,43.5,36.0,30.11,NW,321,4.0,-999.0,75,-99.99,,,0.01,weatherlink.com 1.10,2013-05-14 12:34:00,
2013-05-14 08:49:00,43.7,35.0,30.11,North,355,6.0,-999.0,72,-99.99,,,0.01,weatherlink.com 1.10,2013-05-14 12:49:00,
2013-05-14 09:04:00,45.9,37.0,30.10,NNW,334,1.0,-999.0,71,-99.99,,,0.01,weatherlink.com 1.10,2013-05-14 13:04:00,
2013-05-14 09:19:00,46.6,34.0,30.10,NW,323,5.0,-999.0,63,-99.99,,,0.01,weatherlink.com 1.10,2013-05-14 13:19:00,
2013-05-14 09:34:00,46.7,36.0,30.09,East,84,6.0,-999.0,66,-99.99,,,0.01,weatherlink.com 1.10,2013-05-14 13:34:00,
2013-05-14 09:49:00,47.1,34.0,30.08,NE,55,13.0,-999.0,61,-99.99,,,0.01,weatherlink.com 1.10,2013-05-14 13:49:00,
2013-05-14 10:04:00,47.9,35.0,30.08,NNE,28,9.0,-999.0,61,-99.99,,,0.01,weatherlink.com 1.10,2013-05-14 14:04:00,
2013-05-14 10:19:00,47.4,32.0,30.07,NW,326,7.0,-999.0,56,-99.99,,,0.01,weatherlink.com 1.10,2013-05-14 14:19:00,
2013-05-14 10:34:00,47.3,33.0,30.07,NE,47,4.0,-999.0,57,-99.99,,,0.01,weatherlink.com 1.10,2013-05-14 14:34:00,
2013-05-14 10:49:00,47.3,32.0,30.07,NNW,342,5.0,-999.0,55,-99.99,,,0.01,weatherlink.com 1.10,2013-05-14 14:49:00,
2013-05-14 11:04:00,46.9,32.0,30.07,NW,313,5.0,-999.0,56,-99.99,,,0.01,weatherlink.com 1.10,2013-05-14 15:04:00,
2013-05-14 11:19:00,47.4,31.0,30.07,NNW,332,0.0,-999.0,54,-99.99,,,0.01,weatherlink.com 1.10,2013-05-14 15:19:00,
2013-05-14 11:34:00,48.6,32.0,30.06,NNE,15,7.0,-999.0,54,-99.99,,,0.01,weatherlink.com 1.10,2013-05-14 15:34:00,
2013-05-14 11:49:00,50.6,32.0,30.06,NNE,20,4.0,-999.0,50,-99.99,,,0.01,weatherlink.com 1.10,2013-05-14 15:49:00,
2013-05-14 12:04:00,49.4,30.0,30.06,NNE,29,6.0,-999.0,48,-99.99,,,0.01,weatherlink.com 1.10,2013-05-14 16:04:00,
2013-05-14 12:19:00,50.0,30.0,30.06,NE,53,2.0,-999.0,47,-99.99,,,0.01,weatherlink.com 1.10,2013-05-14 16:19:00,
2013-05-14 12:34:00,49.5,28.0,30.06,NNE,15,9.0,-999.0,44,-99.99,,,0.01,weatherlink.com 1.10,2013-05-14 16:34:00,
2013-05-14 12:49:00,53.9,34.0,30.05,East,97,8.0,-999.0,47,-99.99,,,0.01,weatherlink.com 1.10,2013-05-14 16:49:00,
2013-05-14 13:04:00,51.1,32.0,30.06,NNW,332,4.0,-999.0,48,-99.99,,,0.01,weatherlink.com 1.10,2013-05-14 17:04:00,
2013-05-14 13:19:00,50.3,29.0,30.06,WNW,296,7.0,-999.0,44,-99.99,,,0.01,weatherlink.com 1.10,2013-05-14 17:19:00,
2013-05-14 13:34:00,50.7,29.0,30.06,NNW,340,3.0,-999.0,43,-99.99,,,0.01,weatherlink.com 1.10,2013-05-14 17:34:00,
2013-05-14 13:49:00,51.0,29.0,30.05,North,355,9.0,-999.0,43,-99.99,,,0.00,weatherlink.com 1.10,2013-05-14 17:49:00,
2013-05-14 14:04:00,52.2,29.0,30.05,NNE,15,3.0,-999.0,41,-99.99,,,0.00,weatherlink.com 1.10,2013-05-14 18:04:00,
2013-05-14 14:19:00,51.9,29.0,30.05,WSW,247,6.0,-999.0,41,-99.99,,,0.00,weatherlink.com 1.10,2013-05-14 18:19:00,
2013-05-14 14:34:00,51.3,30.0,30.05,West,278,5.0,-999.0,44,-99.99,,,0.00,weatherlink.com 1.10,2013-05-14 18:34:00,
2013-05-14 14:49:00,51.4,29.0,30.04,West,264,0.0,-999.0,43,-99.99,,,0.00,weatherlink.com 1.10,2013-05-14 18:49:00,
2013-05-14 15:04:00,51.2,30.0,30.04,North,10,4.0,-999.0,44,-99.99,,,0.00,weatherlink.com 1.10,2013-05-14 19:04:00,
2013-05-14 15:19:00,52.7,31.0,30.04,North,10,2.0,-999.0,43,-99.99,,,0.00,weatherlink.com 1.10,2013-05-14 19:19:00,
2013-05-14 15:34:00,52.9,29.0,30.03,WNW,299,0.0,-999.0,40,-99.99,,,0.00,weatherlink.com 1.10,2013-05-14 19:34:00,
2013-05-14 15:49:00,51.7,27.0,30.03,North,351,4.0,-999.0,39,-99.99,,,0.00,weatherlink.com 1.10,2013-05-14 19:49:00,
2013-05-14 16:04:00,54.1,31.0,30.02,South,184,1.0,-999.0,41,-99.99,,,0.00,weatherlink.com 1.10,2013-05-14 20:04:00,
2013-05-14 16:19:00,53.5,31.0,30.02,NNW,345,4.0,-999.0,42,-99.99,,,0.01,weatherlink.com 1.10,2013-05-14 20:19:00,
2013-05-14 16:34:00,52.2,30.0,30.02,North,349,1.0,-999.0,43,-99.99,,,0.01,weatherlink.com 1.10,2013-05-14 20:34:00,
2013-05-14 16:49:00,51.5,29.0,30.02,NNE,25,4.0,-999.0,43,-99.99,,,0.01,weatherlink.com 1.10,2013-05-14 20:49:00,
2013-05-14 17:04:00,53.0,29.0,30.01,WNW,301,6.0,-999.0,40,-99.99,,,0.01,weatherlink.com 1.10,2013-05-14 21:04:00,
2013-05-14 17:19:00,52.7,30.0,30.00,NW,325,3.0,-999.0,42,-99.99,,,0.01,weatherlink.com 1.10,2013-05-14 21:19:00,
2013-05-14 17:34:00,52.3,32.0,30.00,NNW,340,3.0,-999.0,46,-99.99,,,0.01,weatherlink.com 1.10,2013-05-14 21:34:00,
2013-05-14 17:49:00,51.4,29.0,30.00,NW,321,2.0,-999.0,43,-99.99,,,0.01,weatherlink.com 1.10,2013-05-14 21:49:00,
2013-05-14 18:04:00,52.1,31.0,30.00,NE,37,6.0,-999.0,45,-99.99,,,0.01,weatherlink.com 1.10,2013-05-14 22:04:00,
2013-05-14 18:19:00,52.6,29.0,30.00,NNE,20,3.0,-999.0,41,-99.99,,,0.01,weatherlink.com 1.10,2013-05-14 22:19:00,
2013-05-14 18:34:00,52.1,28.0,30.00,NW,308,2.0,-999.0,39,-99.99,,,0.01,weatherlink.com 1.10,2013-05-14 22:34:00,
2013-05-14 18:49:00,51.5,29.0,30.00,WNW,283,1.0,-999.0,42,-99.99,,,0.01,weatherlink.com 1.10,2013-05-14 22:49:00,
2013-05-14 19:04:00,50.2,28.0,30.01,NW,306,1.0,-999.0,42,-99.99,,,0.01,weatherlink.com 1.10,2013-05-14 23:04:00,
2013-05-14 19:19:00,49.0,29.0,30.01,West,278,1.0,-999.0,47,-99.99,,,0.01,weatherlink.com 1.10,2013-05-14 23:19:00,
2013-05-14 19:34:00,48.5,29.0,30.01,SW,227,0.0,-999.0,48,-99.99,,,0.01,weatherlink.com 1.10,2013-05-14 23:34:00,
2013-05-14 19:49:00,49.1,28.0,30.01,WNW,294,0.0,-999.0,45,-99.99,,,0.01,weatherlink.com 1.10,2013-05-14 23:49:00,
2013-05-14 20:04:00,49.1,29.0,30.02,WNW,292,0.0,-999.0,46,-99.99,,,0.01,weatherlink.com 1.10,2013-05-15 00:04:00,
2013-05-14 20:20:00,47.4,30.0,30.03,WNW,293,0.0,-999.0,52,-99.99,,,0.01,weatherlink.com 1.10,2013-05-15 00:20:00,
2013-05-14 20:35:00,44.7,29.0,30.03,WNW,292,0.0,-999.0,55,-99.99,,,0.01,weatherlink.com 1.10,2013-05-15 00:35:00,
2013-05-14 20:50:00,43.8,31.0,30.04,WNW,293,0.0,-999.0,60,-99.99,,,0.01,weatherlink.com 1.10,2013-05-15 00:50:00,
2013-05-14 21:05:00,43.3,31.0,30.04,WNW,293,0.0,-999.0,62,-99.99,,,0.01,weatherlink.com 1.10,2013-05-15 01:05:00,
2013-05-14 21:20:00,42.7,32.0,30.04,WNW,293,0.0,-999.0,65,-99.99,,,0.01,weatherlink.com 1.10,2013-05-15 01:20:00,
2013-05-14 21:35:00,41.9,31.0,30.05,WNW,293,0.0,-999.0,66,-99.99,,,0.01,weatherlink.com 1.10,2013-05-15 01:35:00,
2013-05-14 21:50:00,41.1,32.0,30.05,WNW,293,0.0,-999.0,70,-99.99,,,0.01,weatherlink.com 1.10,2013-05-15 01:50:00,
2013-05-14 22:05:00,40.6,32.0,30.06,WNW,293,0.0,-999.0,71,-99.99,,,0.01,weatherlink.com 1.10,2013-05-15 02:05:00,
2013-05-14 22:20:00,39.8,31.0,30.06,WNW,294,0.0,-999.0,72,-99.99,,,0.01,weatherlink.com 1.10,2013-05-15 02:20:00,
2013-05-14 22:35:00,39.6,32.0,30.06,WNW,294,0.0,-999.0,74,-99.99,,,0.01,weatherlink.com 1.10,2013-05-15 02:35:00,
2013-05-14 22:50:00,39.3,32.0,30.06,WNW,294,0.0,-999.0,76,-99.99,,,0.01,weatherlink.com 1.10,2013-05-15 02:50:00,
2013-05-14 23:05:00,39.4,32.0,30.06,WNW,294,0.0,-999.0,75,-99.99,,,0.01,weatherlink.com 1.10,2013-05-15 03:05:00,
2013-05-14 23:20:00,38.9,32.0,30.06,WNW,294,0.0,-999.0,77,-99.99,,,0.01,weatherlink.com 1.10,2013-05-15 03:20:00,
2013-05-14 23:35:00,38.4,32.0,30.06,WNW,294,0.0,-999.0,79,-99.99,,,0.01,weatherlink.com 1.10,2013-05-15 03:35:00,
2013-05-14 23:50:00,38.3,32.0,30.06,WNW,294,0.0,-999.0,77,-99.99,,,0.01,weatherlink.com 1.10,2013-05-15 03:50:00,